Location: Newark
(11.2914°S, 14.4718°E)
Time: 13:20:14
(UTC+00:00)

Tiros 1 despin weight - Pass Details

Date: 23 September 2019
Orbit: 594 x 643 km, 48.2° (Epoch: 14 October)

Event Time Altitude Azimuth Distance (km) Brightness Sun altitude
Rises 18:25:58 0° 352° (N) 2,807 ? -22.4°
Enters shadow 18:27:39 - 2° (N) 2,267 ? -22.8°
Reaches altitude 10° 18:28:58 10° 14° (NNE) 1,916 - -23.1°
Maximum altitude 18:31:42 16° 53° (NE) 1,559 - -23.8°
Drops below altitude 10° 18:34:28 10° 92° (E) 1,937 - -24.4°
Sets 18:37:31 0° 113° (ESE) 2,854 - -25.2°
